Location: Unspecified
(6.4330°N, 0.0000°E)
Time: 02:31:38
(UTC+00:00)

ISS - Visible Passes

Search period start: 21 April 2019 00:00
Search period end: 01 May 2019 00:00
Orbit: 408 x 410 km, 51.6° (Epoch: 21 April)

Date Brightness Start Highest point End Pass type
(mag) Time Alt. Az. Time Alt. Az. Time Alt. Az.
21 Apr -0.8 04:23:29 10° SSE 04:24:45 12° SE 04:26:02 10° ESE visible
22 Apr -3.7 05:07:42 14° SW 05:10:22 55° NW 05:13:35 10° NNE visible
23 Apr -3.0 04:19:48 48° ESE 04:19:48 48° ESE 04:22:49 10° NE visible
24 Apr -1.7 05:04:34 13° WNW 05:05:17 13° NW 05:07:01 10° NNW visible
25 Apr -1.5 04:16:24 17° N 04:16:24 17° N 04:17:28 10° NNE visible
